Location: Nag� el Ma?a??a
(24.0667°N, 32.8833°E)
Time: 15:52:53
(UTC+00:00)

BREEZE-M DEB (TANK) - Pass Details

Date: 25 September 2021
Orbit: 345 x 20761 km, 49.4° (Epoch: 14 October)

Event Time Altitude Azimuth Distance (km) Brightness Sun altitude
Exits shadow 02:28:19 19° 220° (SW) 1,580 4.2 -16.7°
Maximum altitude 02:31:00 82° 136° (SE) 459 1.9 -16.1°
Drops below altitude 10° 02:33:21 10° 46° (NE) 1,321 5.1 -15.6°
Sets 02:34:53 0° 45° (NE) 2,140 6.2 -15.3°
